Hourly Weather Bolshoy Shaplak

Today, 23 July, Friday

Time Temperature Precipitation Wind Pressure Humidity
00:00 +15°C° 0 mm 1 mps 744 mmHg 79%
01:00 +14°C° 0 mm 1 mps 744 mmHg 79%
02:00 +14°C° 0 mm 1 mps 744 mmHg 79%
03:00 +14°C° 0 mm 1 mps 744 mmHg 74%
04:00 +15°C° 0 mm 1 mps 744 mmHg 73%
05:00 +15°C° 0 mm 1 mps 744 mmHg 71%
06:00 +15°C° 0 mm 2 mps 744 mmHg 70%
07:00 +17°C° 0 mm 2 mps 744 mmHg 61%
08:00 +18°C° 0 mm 2 mps 744 mmHg 52%
09:00 +20°C° 0 mm 3 mps 744 mmHg 43%
10:00 +21°C° 0 mm 3 mps 744 mmHg 41%
11:00 +22°C° 0 mm 3 mps 744 mmHg 39%
12:00 +24°C° 0 mm 3 mps 744 mmHg 37%
13:00 +22°C° 0 mm 3 mps 744 mmHg 42%
14:00 +21°C° 0 mm 3 mps 744 mmHg 47%
15:00 +20°C° 0 mm 3 mps 743 mmHg 52%
16:00 +19°C° 0.2 mm 2 mps 743 mmHg 64%
17:00 +17°C° 0.2 mm 2 mps 744 mmHg 76%
18:00 +15°C° 0.2 mm 1 mps 744 mmHg 88%
19:00 +15°C° 0.1 mm 2 mps 743 mmHg 90%
20:00 +15°C° 0.1 mm 2 mps 743 mmHg 91%
21:00 +14°C° 0.1 mm 2 mps 743 mmHg 93%
22:00 +14°C° 0 mm 2 mps 743 mmHg 93%
23:00 +14°C° 0 mm 2 mps 743 mmHg 94%

Tomorrow, 24 July, Saturday

Time Temperature Precipitation Wind Pressure Humidity
00:00 +12°C° 0 mm 3 mps 743 mmHg 95%
01:00 +13°C° 0 mm 2 mps 743 mmHg 96%
02:00 +12°C° 0 mm 2 mps 744 mmHg 97%
03:00 +12°C° 0 mm 2 mps 744 mmHg 98%
04:00 +12°C° 0 mm 2 mps 744 mmHg 96%
05:00 +13°C° 0 mm 2 mps 745 mmHg 94%
06:00 +13°C° 0 mm 2 mps 745 mmHg 93%
07:00 +13°C° 0 mm 3 mps 746 mmHg 86%
08:00 +14°C° 0 mm 3 mps 746 mmHg 80%
09:00 +15°C° 0 mm 4 mps 746 mmHg 74%
10:00 +17°C° 0 mm 4 mps 747 mmHg 66%
11:00 +18°C° 0 mm 4 mps 747 mmHg 58%
12:00 +19°C° 0 mm 4 mps 748 mmHg 51%
13:00 +19°C° 0 mm 4 mps 748 mmHg 49%
14:00 +19°C° 0 mm 4 mps 749 mmHg 46%
15:00 +19°C° 0 mm 4 mps 749 mmHg 44%
16:00 +18°C° 0 mm 3 mps 750 mmHg 47%
17:00 +18°C° 0 mm 3 mps 750 mmHg 49%
18:00 +17°C° 0 mm 2 mps 751 mmHg 52%
19:00 +16°C° 0 mm 2 mps 751 mmHg 57%
20:00 +14°C° 0 mm 2 mps 752 mmHg 63%
21:00 +12°C° 0 mm 2 mps 752 mmHg 68%
22:00 +12°C° 0 mm 2 mps 752 mmHg 65%
23:00 +10°C° 0 mm 2 mps 753 mmHg 63%

Day after tomorrow, 25 July, Sunday

Time Temperature Precipitation Wind Pressure Humidity
00:00 +10°C° 0 mm 1 mps 753 mmHg 60%
01:00 +9°C° 0 mm 1 mps 754 mmHg 61%
02:00 +9°C° 0 mm 1 mps 754 mmHg 62%
03:00 +8°C° 0 mm 1 mps 755 mmHg 62%
04:00 +9°C° 0 mm 1 mps 755 mmHg 61%
05:00 +11°C° 0 mm 1 mps 756 mmHg 59%
06:00 +11°C° 0 mm 0 mps 756 mmHg 57%
07:00 +14°C° 0 mm 1 mps 756 mmHg 51%
08:00 +16°C° 0 mm 1 mps 756 mmHg 46%
09:00 +19°C° 0 mm 1 mps 756 mmHg 41%
10:00 +19°C° 0 mm 2 mps 756 mmHg 38%
11:00 +20°C° 0 mm 2 mps 757 mmHg 36%
12:00 +20°C° 0 mm 2 mps 757 mmHg 34%
13:00 +21°C° 0 mm 3 mps 757 mmHg 33%
14:00 +21°C° 0 mm 3 mps 757 mmHg 33%
15:00 +22°C° 0 mm 3 mps 757 mmHg 33%
16:00 +21°C° 0 mm 3 mps 757 mmHg 37%
17:00 +20°C° 0 mm 3 mps 757 mmHg 42%
18:00 +20°C° 0 mm 2 mps 757 mmHg 46%
19:00 +18°C° 0 mm 2 mps 757 mmHg 51%
20:00 +16°C° 0 mm 2 mps 757 mmHg 56%
21:00 +14°C° 0 mm 1 mps 758 mmHg 61%
22:00 +14°C° 0 mm 1 mps 758 mmHg 59%
23:00 +14°C° 0 mm 1 mps 758 mmHg 57%

26 July, Monday

Time Temperature Precipitation Wind Pressure Humidity
00:00 +15°C° 0 mm 1 mps 758 mmHg 56%
01:00 +14°C° 0 mm 1 mps 758 mmHg 57%
02:00 +14°C° 0 mm 1 mps 759 mmHg 57%
03:00 +14°C° 0 mm 1 mps 759 mmHg 58%
04:00 +14°C° 0 mm 1 mps 759 mmHg 59%
05:00 +13°C° 0 mm 0 mps 759 mmHg 60%
06:00 +14°C° 0 mm 0 mps 759 mmHg 61%
07:00 +16°C° 0 mm 1 mps 759 mmHg 59%
08:00 +16°C° 0 mm 1 mps 759 mmHg 58%
09:00 +18°C° 0 mm 1 mps 759 mmHg 56%
10:00 +19°C° 0 mm 2 mps 759 mmHg 50%
11:00 +21°C° 0 mm 2 mps 758 mmHg 44%
12:00 +24°C° 0 mm 3 mps 758 mmHg 38%
13:00 +24°C° 0 mm 3 mps 758 mmHg 39%
14:00 +24°C° 0 mm 3 mps 758 mmHg 40%
15:00 +24°C° 0 mm 3 mps 757 mmHg 41%
16:00 +22°C° 0 mm 3 mps 757 mmHg 46%
17:00 +23°C° 0 mm 2 mps 757 mmHg 52%
18:00 +21°C° 0 mm 2 mps 757 mmHg 58%
19:00 +19°C° 0 mm 2 mps 757 mmHg 62%
20:00 +18°C° 0 mm 2 mps 757 mmHg 65%
21:00 +16°C° 0 mm 2 mps 757 mmHg 68%
22:00 +16°C° 0 mm 2 mps 757 mmHg 69%
23:00 +15°C° 0 mm 2 mps 757 mmHg 70%

27 July, Tuesday

Time Temperature Precipitation Wind Pressure Humidity
00:00 +15°C° 0 mm 2 mps 757 mmHg 72%
01:00 +15°C° 0 mm 2 mps 757 mmHg 70%
02:00 +15°C° 0 mm 2 mps 757 mmHg 67%
03:00 +15°C° 0 mm 2 mps 757 mmHg 65%
04:00 +16°C° 0 mm 2 mps 757 mmHg 66%
05:00 +16°C° 0 mm 2 mps 757 mmHg 66%
06:00 +17°C° 0 mm 2 mps 757 mmHg 66%
07:00 +19°C° 0 mm 2 mps 757 mmHg 60%
08:00 +21°C° 0 mm 3 mps 756 mmHg 54%
09:00 +22°C° 0 mm 3 mps 756 mmHg 49%
10:00 +25°C° 0 mm 3 mps 756 mmHg 47%
11:00 +26°C° 0 mm 3 mps 756 mmHg 46%
12:00 +27°C° 0 mm 3 mps 756 mmHg 45%
13:00 +26°C° 0 mm 3 mps 756 mmHg 48%
14:00 +25°C° 0 mm 3 mps 755 mmHg 52%
15:00 +24°C° 0 mm 2 mps 755 mmHg 55%
16:00 +23°C° 0 mm 2 mps 755 mmHg 57%
17:00 +23°C° 0 mm 2 mps 755 mmHg 59%
18:00 +21°C° 0 mm 2 mps 756 mmHg 62%
19:00 +20°C° 0 mm 2 mps 756 mmHg 66%
20:00 +19°C° 0 mm 1 mps 756 mmHg 71%
21:00 +18°C° 0 mm 1 mps 756 mmHg 75%
22:00 +16°C° 0 mm 1 mps 756 mmHg 79%
23:00 +16°C° 0 mm 1 mps 756 mmHg 82%

28 July, Wednesday

Time Temperature Precipitation Wind Pressure Humidity
00:00 +15°C° 0 mm 1 mps 756 mmHg 85%
01:00 +14°C° 0 mm 1 mps 756 mmHg 87%
02:00 +14°C° 0 mm 1 mps 756 mmHg 88%
03:00 +14°C° 0 mm 1 mps 756 mmHg 90%
04:00 +15°C° 0 mm 1 mps 756 mmHg 85%
05:00 +16°C° 0 mm 1 mps 756 mmHg 81%
06:00 +18°C° 0 mm 1 mps 756 mmHg 76%
07:00 +20°C° 0 mm 1 mps 756 mmHg 68%
08:00 +22°C° 0 mm 1 mps 756 mmHg 59%
09:00 +24°C° 0 mm 2 mps 756 mmHg 51%
10:00 +25°C° 0 mm 2 mps 756 mmHg 46%
11:00 +26°C° 0 mm 2 mps 755 mmHg 42%
12:00 +27°C° 0 mm 2 mps 755 mmHg 37%
13:00 +27°C° 0 mm 2 mps 755 mmHg 38%
14:00 +28°C° 0 mm 2 mps 754 mmHg 38%
15:00 +28°C° 0 mm 2 mps 754 mmHg 38%
16:00 +27°C° 0 mm 2 mps 754 mmHg 42%
17:00 +27°C° 0 mm 2 mps 753 mmHg 46%
18:00 +26°C° 0 mm 2 mps 753 mmHg 50%
19:00 +25°C° 0 mm 2 mps 753 mmHg 54%
20:00 +23°C° 0 mm 2 mps 753 mmHg 58%
21:00 +20°C° 0 mm 3 mps 753 mmHg 61%
22:00 +19°C° 0 mm 3 mps 753 mmHg 63%
23:00 +19°C° 0 mm 3 mps 753 mmHg 66%
Show more

We Need Your Consent

Meteoprog and our Service Providers may store and access personal data such as cookies, device identifiers or other similar technologies on your device and process such data to personalise content and ads, as well as provide social media features and to analyse the traffic.

  • Store and/or access information on your device

    Cookies, device identifiers or other information can be stored or accessed on your device for the purposes indicated above.

  • Personalised ads and content, ad and content measurement, audience insights, and products development

    Ads and content can be personalised based on a profile. More data can be added to better personalise ads and content. Ad and content performance can be measured. Insights about the audience who saw the ads and content can be derived. Such data can be used to develop or improve user’s experience, systems and software.

By clicking ‘I Agree’ you will allow the use of indicated cookies, device identifiers, web beacons or other similar technologies. Your settings can be changed in the browser on your device.

For certain purposes, legitimate interests may be relied on, rather than consent. You can read more about this in our Privacy and Cookie Policy.